Location: Catenanuova
(37.5690°N, 14.6870°E)
Time: 21:20:26
(UTC+01:00)

ISS - Visible Passes

Search period start: 09 December 2019 00:00
Search period end: 19 December 2019 00:00
Orbit: 411 x 421 km, 51.6° (Epoch: 10 December)

Date Brightness Start Highest point End Pass type
(mag) Time Alt. Az. Time Alt. Az. Time Alt. Az.
09 Dec -3.1 17:40:20 10° NW 17:43:28 36° NNE 17:45:24 19° E visible
09 Dec -0.6 19:17:25 10° W 19:18:22 15° W 19:18:22 15° W visible
10 Dec -2.5 18:28:32 10° WNW 18:31:43 39° SW 18:33:05 26° S visible
11 Dec -3.6 17:39:56 10° NW 17:43:17 77° SW 17:46:38 10° SE visible
12 Dec -0.5 18:29:32 10° W 18:31:10 13° SW 18:32:47 10° SSW visible
13 Dec -1.1 17:40:07 10° WNW 17:42:51 23° SW 17:45:35 10° S visible
